Weather in Pirogovskiy

Russia / Moscow Oblast     55°58′48″N   37°44′39″E
temp.,
°C
wind,
m/s
gust,
m/s
humid.,
%
clouds,
%
prec.,
mm/h
press.,
hPa
HPBL,
m
5 august, thu
thu500:00+16nne006668 0.0 101714
03:00+14sw007628 0.0 101711
06:00+15ne007498 0.0 101730
09:00+20sse235696 0.0 1017518
12:00+22sse4545100 0.0 10161369
15:00+22se3549100 0.0 1015947
18:00+15e2295100 3.4 1015121
21:00+15ese3797100 3.8 1014245
6 august, fri
fri600:00+14ese2797100 0.3 1014212
03:00+13ese379794 0.8 1012182
06:00+14ese2394100 0.9 1012105
09:00+16s269697 0.9 1012252
12:00+16s2499100 4.8 1012303
15:00+16sse2599100 16.8 1012239
18:00+17ese2494100 1.0 1012204
21:00+16e41095100 1.0 1011322
7 august, sat
sat700:00+15e41193100 0.0 1011373
03:00+15e499792 0.3 1010283
06:00+15e3898100 0.6 1010242
09:00+20se478491 0.6 1009370
12:00+26sse475997 0.0 1009920
15:00+26sse695499 0.0 10101103
18:00+21se31077100 0.1 1009288
21:00+20se358483 0.1 101084
8 august, sun
sun800:00+18s2492100 0.7 101071
03:00+18sw2798100 2.1 1011226
06:00+17w1497100 0.1 1011198
09:00+18w3483100 1.8 1013431
12:00+23w35500 0.1 10131255
15:00+25wsw45440 0.1 10131679
18:00+23wnw565586 0.0 10141121
21:00+19w237063 0.0 101578
9 august, mon
mon900:00+16w248176 0.0 101671
03:00+15wsw238591 0.0 101661
06:00+15wnw258435 0.0 1016116
09:00+20wsw236240 0.0 1016521
12:00+25wnw35471 0.0 10151628
15:00+26nw34425 0.0 10151749
18:00+25nnw23505 0.0 1014701
21:00+19nne11687 0.0 101511